{"data":{"norad_id":49159,"epoch":"2026-09-19T03:49:25.268736Z","epoch_age_seconds":157084,"freshness":"FRESH","line1":"1 49159U 21082AF  26262.15932024 -.00000048  00000+0  37391-5 0  9995","line2":"2 49159  70.0000 166.6507 0002958 268.9337  91.1483 14.98328627276056","mean_motion":14.98328627,"eccentricity":0.0002958,"inclination_deg":70,"raan_deg":166.6507,"arg_perigee_deg":268.9337,"mean_anomaly_deg":91.1483,"bstar":3.7391e-6,"rev_number":27605,"period_min":96.107087193763,"perigee_km":570.00426852382,"apogee_km":574.11600514998,"semimajor_km":6950.1971368369,"source":"CELESTRAK","updated_at":"2026-09-20T09:00:39.251490Z"}}